Time,TemperatureF,DewpointF,PressureIn,WindDirection,WindDirectionDegrees,WindSpeedMPH,WindSpeedGustMPH,Humidity,HourlyPrecipIn,Conditions,Clouds,dailyrainin,SolarRadiationWatts/m^2,SoftwareType,DateUTC
2013-04-23 00:11:00,41.6,32.0,30.50,West,268,0.0,1.0,70,0.00,,,0.00,0,weatherlink.com 1.10,2013-04-23 04:11:00,
2013-04-23 00:26:00,41.1,32.0,30.50,West,268,0.0,1.0,71,0.00,,,0.00,0,weatherlink.com 1.10,2013-04-23 04:26:00,
2013-04-23 00:41:00,40.8,32.0,30.50,West,268,0.0,1.0,71,0.00,,,0.00,0,weatherlink.com 1.10,2013-04-23 04:41:00,
2013-04-23 00:56:00,40.4,32.0,30.49,West,268,0.0,1.0,72,0.00,,,0.00,0,weatherlink.com 1.10,2013-04-23 04:56:00,
2013-04-23 01:11:00,39.9,32.0,30.48,West,268,0.0,1.0,73,0.00,,,0.00,0,weatherlink.com 1.10,2013-04-23 05:11:00,
2013-04-23 01:26:00,39.7,32.0,30.48,West,267,0.0,1.0,73,0.00,,,0.00,0,weatherlink.com 1.10,2013-04-23 05:26:00,
2013-04-23 01:42:00,39.2,31.0,30.47,West,267,0.0,0.0,73,0.00,,,0.00,0,weatherlink.com 1.10,2013-04-23 05:42:00,
2013-04-23 01:56:00,38.7,31.0,30.47,West,268,0.0,1.0,74,0.00,,,0.00,0,weatherlink.com 1.10,2013-04-23 05:56:00,
2013-04-23 02:11:00,38.6,31.0,30.46,West,268,0.0,1.0,73,0.00,,,0.00,0,weatherlink.com 1.10,2013-04-23 06:11:00,
2013-04-23 02:27:00,38.3,30.0,30.46,West,268,0.0,1.0,73,0.00,,,0.00,0,weatherlink.com 1.10,2013-04-23 06:27:00,
2013-04-23 02:42:00,38.4,30.0,30.45,West,268,0.0,1.0,72,0.00,,,0.00,0,weatherlink.com 1.10,2013-04-23 06:42:00,
2013-04-23 02:57:00,38.0,30.0,30.45,West,268,0.0,1.0,72,0.00,,,0.00,0,weatherlink.com 1.10,2013-04-23 06:57:00,
2013-04-23 03:12:00,37.9,29.0,30.45,West,268,0.0,1.0,71,0.00,,,0.00,0,weatherlink.com 1.10,2013-04-23 07:12:00,
2013-04-23 03:27:00,38.0,29.0,30.44,WSW,247,0.0,2.0,71,0.00,,,0.00,0,weatherlink.com 1.10,2013-04-23 07:27:00,
2013-04-23 03:42:00,37.7,29.0,30.44,WSW,247,0.0,1.0,71,0.00,,,0.00,0,weatherlink.com 1.10,2013-04-23 07:42:00,
2013-04-23 03:57:00,37.5,29.0,30.44,WSW,244,1.0,1.0,71,0.00,,,0.00,0,weatherlink.com 1.10,2013-04-23 07:57:00,
2013-04-23 04:12:00,37.2,29.0,30.44,SW,229,0.0,1.0,71,0.00,,,0.00,0,weatherlink.com 1.10,2013-04-23 08:12:00,
2013-04-23 04:27:00,36.8,29.0,30.44,SW,229,0.0,1.0,72,0.00,,,0.00,0,weatherlink.com 1.10,2013-04-23 08:27:00,
2013-04-23 04:42:00,36.7,28.0,30.44,SW,229,0.0,2.0,72,0.00,,,0.00,0,weatherlink.com 1.10,2013-04-23 08:42:00,
2013-04-23 04:57:00,36.6,28.0,30.44,SW,229,1.0,1.0,72,0.00,,,0.00,0,weatherlink.com 1.10,2013-04-23 08:57:00,
2013-04-23 05:12:00,36.4,28.0,30.44,SW,229,0.0,1.0,72,0.00,,,0.00,0,weatherlink.com 1.10,2013-04-23 09:12:00,
2013-04-23 05:27:00,35.4,28.0,30.44,SW,229,0.0,0.0,74,0.00,,,0.00,0,weatherlink.com 1.10,2013-04-23 09:27:00,
2013-04-23 05:42:00,34.3,27.0,30.44,SW,229,0.0,0.0,76,0.00,,,0.00,0,weatherlink.com 1.10,2013-04-23 09:42:00,
2013-04-23 05:57:00,33.5,27.0,30.44,SW,229,0.0,0.0,78,0.00,,,0.00,0,weatherlink.com 1.10,2013-04-23 09:57:00,
2013-04-23 06:12:00,32.9,27.0,30.44,SW,229,0.0,0.0,80,0.00,,,0.00,0,weatherlink.com 1.10,2013-04-23 10:12:00,
2013-04-23 06:27:00,32.5,27.0,30.43,SW,229,0.0,0.0,81,0.00,,,0.00,5,weatherlink.com 1.10,2013-04-23 10:27:00,
2013-04-23 06:42:00,32.5,28.0,30.44,SW,229,0.0,1.0,82,0.00,,,0.00,11,weatherlink.com 1.10,2013-04-23 10:42:00,
2013-04-23 06:57:00,32.7,28.0,30.43,SW,229,0.0,0.0,83,0.00,,,0.00,18,weatherlink.com 1.10,2013-04-23 10:57:00,
2013-04-23 07:12:00,33.4,29.0,30.43,SW,229,0.0,1.0,82,0.00,,,0.00,23,weatherlink.com 1.10,2013-04-23 11:12:00,
2013-04-23 07:27:00,34.6,29.0,30.43,ENE,66,0.0,2.0,80,0.00,,,0.00,32,weatherlink.com 1.10,2013-04-23 11:27:00,
2013-04-23 07:42:00,36.3,30.0,30.42,North,360,0.0,3.0,78,0.00,,,0.00,76,weatherlink.com 1.10,2013-04-23 11:42:00,
2013-04-23 07:57:00,37.5,30.0,30.42,North,360,0.0,2.0,74,0.00,,,0.00,74,weatherlink.com 1.10,2013-04-23 11:57:00,
2013-04-23 08:12:00,38.5,30.0,30.42,North,360,0.0,1.0,72,0.00,,,0.00,83,weatherlink.com 1.10,2013-04-23 12:12:00,
2013-04-23 08:27:00,39.0,30.0,30.42,North,360,0.0,1.0,70,0.00,,,0.00,79,weatherlink.com 1.10,2013-04-23 12:27:00,
2013-04-23 08:42:00,39.2,30.0,30.41,NNW,329,0.0,2.0,70,0.00,,,0.00,74,weatherlink.com 1.10,2013-04-23 12:42:00,
2013-04-23 08:57:00,39.4,30.0,30.41,NNW,329,0.0,1.0,69,0.00,,,0.00,63,weatherlink.com 1.10,2013-04-23 12:57:00,
2013-04-23 09:12:00,39.6,30.0,30.40,NNW,329,0.0,2.0,68,0.00,,,0.00,72,weatherlink.com 1.10,2013-04-23 13:12:00,
2013-04-23 09:27:00,39.6,30.0,30.40,NNW,337,0.0,2.0,68,0.00,,,0.00,67,weatherlink.com 1.10,2013-04-23 13:27:00,
2013-04-23 09:42:00,39.9,30.0,30.39,NNW,337,0.0,1.0,68,0.00,,,0.00,81,weatherlink.com 1.10,2013-04-23 13:42:00,
2013-04-23 09:57:00,40.1,30.0,30.39,NNW,337,0.0,1.0,68,0.00,,,0.00,86,weatherlink.com 1.10,2013-04-23 13:57:00,
2013-04-23 10:12:00,40.5,31.0,30.38,NNW,337,0.0,1.0,68,0.00,,,0.00,130,weatherlink.com 1.10,2013-04-23 14:12:00,
2013-04-23 10:27:00,41.4,31.0,30.38,NNW,330,1.0,3.0,67,0.00,,,0.00,139,weatherlink.com 1.10,2013-04-23 14:27:00,
2013-04-23 10:43:00,41.2,31.0,30.39,NNW,327,1.0,2.0,66,0.00,,,0.00,135,weatherlink.com 1.10,2013-04-23 14:43:00,
2013-04-23 10:58:00,41.4,31.0,30.38,SW,219,0.0,5.0,66,0.00,,,0.00,158,weatherlink.com 1.10,2013-04-23 14:58:00,
2013-04-23 11:13:00,41.9,31.0,30.37,NNE,12,0.0,3.0,66,0.00,,,0.00,149,weatherlink.com 1.10,2013-04-23 15:13:00,
2013-04-23 11:28:00,43.0,32.0,30.36,SSW,197,0.0,2.0,66,0.00,,,0.00,176,weatherlink.com 1.10,2013-04-23 15:28:00,
2013-04-23 11:43:00,43.2,32.0,30.35,WNW,298,0.0,2.0,65,0.00,,,0.00,207,weatherlink.com 1.10,2013-04-23 15:43:00,
2013-04-23 11:58:00,44.0,33.0,30.34,North,355,0.0,2.0,65,0.00,,,0.00,190,weatherlink.com 1.10,2013-04-23 15:58:00,
2013-04-23 12:13:00,43.6,33.0,30.34,SW,218,2.0,3.0,66,0.00,,,0.00,163,weatherlink.com 1.10,2013-04-23 16:13:00,
2013-04-23 12:28:00,44.6,34.0,30.34,NW,314,0.0,2.0,67,0.00,,,0.00,193,weatherlink.com 1.10,2013-04-23 16:28:00,
2013-04-23 12:43:00,44.4,34.0,30.33,West,261,0.0,2.0,68,0.00,,,0.00,232,weatherlink.com 1.10,2013-04-23 16:43:00,
2013-04-23 12:58:00,44.6,35.0,30.32,NW,324,0.0,2.0,69,0.00,,,0.00,206,weatherlink.com 1.10,2013-04-23 16:58:00,
2013-04-23 13:13:00,44.9,36.0,30.32,NW,309,0.0,1.0,72,0.00,,,0.00,174,weatherlink.com 1.10,2013-04-23 17:13:00,
2013-04-23 13:28:00,44.1,36.0,30.31,NW,309,0.0,3.0,74,0.00,,,0.00,118,weatherlink.com 1.10,2013-04-23 17:28:00,
2013-04-23 13:43:00,44.5,37.0,30.30,NW,309,0.0,1.0,74,0.00,,,0.00,197,weatherlink.com 1.10,2013-04-23 17:43:00,
2013-04-23 13:58:00,45.0,37.0,30.30,NNW,343,1.0,4.0,74,0.00,,,0.00,209,weatherlink.com 1.10,2013-04-23 17:58:00,
2013-04-23 14:13:00,46.4,37.0,30.28,NNW,344,1.0,3.0,70,0.00,,,0.00,320,weatherlink.com 1.10,2013-04-23 18:13:00,
2013-04-23 14:28:00,46.7,38.0,30.27,North,351,0.0,4.0,71,0.00,,,0.00,290,weatherlink.com 1.10,2013-04-23 18:28:00,
2013-04-23 14:43:00,47.8,38.0,30.27,North,355,0.0,1.0,68,0.00,,,0.00,287,weatherlink.com 1.10,2013-04-23 18:43:00,
2013-04-23 14:58:00,47.8,38.0,30.26,North,349,0.0,2.0,69,0.00,,,0.00,383,weatherlink.com 1.10,2013-04-23 18:58:00,
2013-04-23 15:13:00,49.4,38.0,30.25,NNW,344,0.0,5.0,65,0.00,,,0.00,459,weatherlink.com 1.10,2013-04-23 19:13:00,
2013-04-23 15:28:00,50.9,39.0,30.24,NNW,328,0.0,3.0,65,0.00,,,0.00,427,weatherlink.com 1.10,2013-04-23 19:28:00,
2013-04-23 15:43:00,50.7,39.0,30.24,North,355,1.0,4.0,64,0.00,,,0.00,512,weatherlink.com 1.10,2013-04-23 19:43:00,
2013-04-23 15:59:00,50.4,39.0,30.23,NNW,346,1.0,3.0,64,0.00,,,0.00,394,weatherlink.com 1.10,2013-04-23 19:59:00,
2013-04-23 16:14:00,51.5,40.0,30.23,NNW,348,1.0,3.0,64,0.00,,,0.00,345,weatherlink.com 1.10,2013-04-23 20:14:00,
2013-04-23 16:29:00,52.1,39.0,30.22,North,9,0.0,3.0,61,0.00,,,0.00,283,weatherlink.com 1.10,2013-04-23 20:29:00,
2013-04-23 16:44:00,51.9,39.0,30.22,NNW,344,2.0,2.0,61,0.00,,,0.00,204,weatherlink.com 1.10,2013-04-23 20:44:00,
2013-04-23 16:59:00,52.0,40.0,30.22,NNW,346,1.0,1.0,63,0.00,,,0.00,190,weatherlink.com 1.10,2013-04-23 20:59:00,
2013-04-23 17:14:00,52.0,39.0,30.22,NNW,345,0.0,2.0,61,0.00,,,0.00,144,weatherlink.com 1.10,2013-04-23 21:14:00,
2013-04-23 17:29:00,51.6,39.0,30.22,WNW,299,0.0,1.0,63,0.00,,,0.00,67,weatherlink.com 1.10,2013-04-23 21:29:00,
2013-04-23 17:44:00,51.3,39.0,30.22,WNW,299,1.0,2.0,63,0.00,,,0.00,56,weatherlink.com 1.10,2013-04-23 21:44:00,
2013-04-23 17:59:00,51.2,39.0,30.20,NW,321,0.0,1.0,64,0.00,,,0.00,84,weatherlink.com 1.10,2013-04-23 21:59:00,
2013-04-23 18:14:00,51.7,39.0,30.18,NW,321,0.0,1.0,63,0.00,,,0.00,77,weatherlink.com 1.10,2013-04-23 22:14:00,
2013-04-23 18:29:00,51.7,39.0,30.17,NW,321,0.0,1.0,63,0.00,,,0.00,74,weatherlink.com 1.10,2013-04-23 22:29:00,
2013-04-23 18:44:00,51.4,39.0,30.17,NW,321,0.0,2.0,63,0.00,,,0.00,42,weatherlink.com 1.10,2013-04-23 22:44:00,
2013-04-23 18:59:00,51.1,39.0,30.18,NW,321,0.0,1.0,64,0.00,,,0.00,21,weatherlink.com 1.10,2013-04-23 22:59:00,
2013-04-23 19:14:00,51.1,39.0,30.18,NW,319,0.0,1.0,64,0.00,,,0.00,12,weatherlink.com 1.10,2013-04-23 23:14:00,
2013-04-23 19:29:00,50.9,39.0,30.17,NW,319,0.0,1.0,65,0.00,,,0.00,5,weatherlink.com 1.10,2013-04-23 23:29:00,
2013-04-23 19:44:00,50.7,39.0,30.17,NW,319,0.0,1.0,65,0.00,,,0.00,0,weatherlink.com 1.10,2013-04-23 23:44:00,
2013-04-23 19:59:00,50.6,40.0,30.17,NW,319,0.0,0.0,66,0.00,,,0.00,0,weatherlink.com 1.10,2013-04-23 23:59:00,
2013-04-23 20:14:00,50.4,40.0,30.15,NW,319,0.0,1.0,67,0.00,,,0.00,0,weatherlink.com 1.10,2013-04-24 00:14:00,
2013-04-23 20:29:00,50.2,40.0,30.16,NW,319,0.0,1.0,67,0.00,,,0.00,0,weatherlink.com 1.10,2013-04-24 00:29:00,
2013-04-23 20:44:00,49.8,40.0,30.15,NW,319,0.0,0.0,68,0.00,,,0.00,0,weatherlink.com 1.10,2013-04-24 00:44:00,
2013-04-23 20:59:00,49.3,39.0,30.15,NW,319,0.0,0.0,68,0.00,,,0.00,0,weatherlink.com 1.10,2013-04-24 00:59:00,
2013-04-23 21:14:00,48.7,39.0,30.14,NW,319,0.0,1.0,69,0.00,,,0.00,0,weatherlink.com 1.10,2013-04-24 01:14:00,
2013-04-23 21:29:00,47.9,39.0,30.14,NW,319,0.0,0.0,70,0.00,,,0.00,0,weatherlink.com 1.10,2013-04-24 01:29:00,
2013-04-23 21:44:00,47.2,38.0,30.14,NW,319,0.0,1.0,71,0.00,,,0.00,0,weatherlink.com 1.10,2013-04-24 01:44:00,
2013-04-23 21:59:00,46.6,38.0,30.14,NW,319,0.0,0.0,71,0.00,,,0.00,0,weatherlink.com 1.10,2013-04-24 01:59:00,
2013-04-23 22:14:00,45.9,38.0,30.13,NW,319,0.0,0.0,73,0.00,,,0.00,0,weatherlink.com 1.10,2013-04-24 02:14:00,
2013-04-23 22:29:00,45.1,37.0,30.13,NW,319,0.0,1.0,74,0.00,,,0.00,0,weatherlink.com 1.10,2013-04-24 02:29:00,
2013-04-23 22:44:00,44.5,37.0,30.13,NW,319,0.0,0.0,75,0.00,,,0.00,0,weatherlink.com 1.10,2013-04-24 02:44:00,
2013-04-23 22:59:00,43.9,37.0,30.13,NW,319,0.0,0.0,76,0.00,,,0.00,0,weatherlink.com 1.10,2013-04-24 02:59:00,
2013-04-23 23:14:00,43.2,36.0,30.12,NW,319,0.0,0.0,77,0.00,,,0.00,0,weatherlink.com 1.10,2013-04-24 03:14:00,
2013-04-23 23:44:00,42.0,36.0,30.11,NW,319,0.0,0.0,79,0.00,,,0.00,0,weatherlink.com 1.10,2013-04-24 03:44:00,
2013-04-23 23:59:00,41.5,36.0,30.11,NW,319,0.0,0.0,80,0.00,,,0.00,0,weatherlink.com 1.10,2013-04-24 03:59:00,